Retour au catalogue

STARLINK-30149

ActifCommunicationsVLEO
NORAD 57516·PAYLOAD·🇺🇸 United States

Lancé Aug 7, 2023 depuis Cape Canaveral Space Force Station

Loading…

Prochains Passages (prochaines 24 heures)

TLE

FraisSource: CelesTrak SupGP

Époque: Sep 15, 2026, 01:41 UTC

1 57516C 23113X   26258.07062500 -.00091186  00000+0 -33028-2 0  2589
2 57516  43.0041  26.4134 0002195 271.8222 321.7486 15.27621491    19

Suivez STARLINK-30149 en temps réel avec AllMySat

Download on the App Store